Wind_Speed
25 23 22 22 27 29 30 36 38 38 39 36 32 33 35 34 35 39 42 44 42 41 36 31 31 30 30 33 35 36 38 38 42 44 43 40 49 56 60 65 68 68 77 77 76 74 77
31 31 28 31 30 26 30 33 38 38 42 38 35 36 38 37 37 42 44 44 42 43 40 35 35 34 36 36 42 43 43 43 45 46 49 52 54 54 51 54 57 59 63 66 71 74 71
33 38 34 35 32 29 27 34 36 40 45 41 37 39 41 41 42 44 44 42 42 44 44 38 38 39 42 44 45 48 51 54 54 55 55 57 59 59 60 62 62 61 59 60 60 64 67
30 33 35 36 33 29 30 34 39 42 46 41 40 42 41 43 46 45 44 43 44 45 44 45 45 44 46 50 50 50 55 57 57 60 64 64 66 64 67 67 68 67 66 64 63 69 70
34 33 32 36 36 34 33 37 40 44 49 39 40 42 42 45 46 47 49 47 49 52 50 48 47 51 52 54 56 58 58 60 59 62 63 68 72 72 73 76 76 75 75 74 74 73 71
34 36 31 34 36 33 31 35 42 47 48 42 42 43 45 48 48 52 54 52 56 57 57 57 53 56 57 58 61 66 67 68 69 72 72 73 73 74 80 85 84 84 84 80 79 79 80
34 32 35 31 37 34 35 42 44 49 50 44 43 45 49 51 51 55 55 58 59 63 60 62 60 59 63 65 69 72 71 73 75 80 82 83 83 84 89 92 94 96 95 91 90 90 89
34 33 38 36 34 37 42 46 48 51 48 44 45 47 51 53 54 58 57 61 67 65 66 65 64 69 75 78 81 83 82 81 82 86 90 94 95 94 96 97 101 105 105 100 103 100 101
35 36 36 36 35 38 46 50 47 49 46 49 50 52 54 57 58 61 62 65 72 70 74 74 73 75 84 89 91 92 94 94 95 98 101 105 107 107 108 112 111 108 110 109 111 112 113
39 41 41 35 39 45 49 46 47 48 47 48 54 57 59 60 63 65 69 71 77 75 77 77 79 81 87 98 99 99 98 98 102 106 109 114 118 121 122 122 122 121 119 120 121 121 118
41 41 34 37 44 43 42 43 47 47 49 53 54 57 60 64 65 69 73 77 76 78 83 85 88 90 99 103 111 109 110 108 113 118 119 121 125 127 130 132 133 130 129 130 126 131 131
39 36 40 39 38 42 45 47 48 50 51 53 56 59 62 65 71 73 78 80 86 86 88 90 95 100 106 117 122 119 121 123 125 126 129 129 130 129 129 128 128 127 128 128 128 130 135
37 40 39 39 43 46 46 45 47 49 52 57 60 63 64 69 74 81 84 84 86 88 92 99 106 110 118 126 126 128 130 132 131 128 125 121 117 112 110 107 108 107 108 111 117 122 123
33 34 37 40 42 43 44 46 48 52 56 57 63 66 68 74 82 88 84 87 89 95 102 112 114 123 128 130 131 134 136 129 122 114 106 99 97 100 100 95 88 91 92 95 99 99 104
34 38 40 42 44 44 46 50 52 54 56 60 64 68 74 83 85 89 91 91 96 102 107 115 123 126 129 134 135 128 122 111 104 98 92 87 82 85 89 86 78 75 77 80 82 87 90
37 40 42 46 44 47 50 54 53 56 60 63 67 75 81 88 90 93 93 94 104 109 117 131 132 132 135 133 125 116 106 97 91 87 81 76 68 78 82 79 73 68 67 70 72 76 81
41 45 46 45 45 48 51 52 56 59 62 67 72 80 85 88 91 92 97 104 114 117 130 131 135 138 137 126 113 105 98 90 81 77 73 68 62 69 71 71 68 63 61 64 67 68 74
40 42 44 46 47 50 51 54 58 62 67 71 80 83 83 89 96 102 105 109 118 124 137 139 143 139 129 114 104 96 88 82 75 69 67 63 59 57 61 60 61 61 59 58 61 65 66
39 44 44 48 48 50 52 57 59 63 70 76 79 87 88 97 98 104 114 121 127 133 137 141 143 128 114 105 93 88 83 77 71 64 58 56 53 50 54 52 53 55 55 56 56 60 63
43 46 48 47 49 52 56 60 62 69 73 79 84 90 94 98 106 111 117 124 131 137 144 144 133 117 104 97 91 83 77 70 66 58 52 49 47 45 47 49 48 52 52 54 54 55 58
44 47 48 46 51 55 57 63 69 71 78 83 88 95 98 103 110 115 121 129 137 138 142 139 121 108 99 88 86 82 75 68 62 54 46 45 44 43 42 41 46 49 49 45 48 48 50
45 47 46 49 54 57 60 67 74 76 81 89 94 98 105 108 113 120 126 134 140 148 142 128 110 103 93 86 83 76 68 62 57 54 46 42 42 41 39 36 41 39 41 41 39 39 44
47 44 47 52 55 58 64 70 72 78 85 89 100 99 105 111 116 123 131 140 142 145 139 116 103 95 89 86 81 75 66 59 54 49 45 42 42 39 38 35 34 32 35 38 38 37 39
42 47 51 53 58 63 69 72 75 83 87 92 101 101 109 115 120 128 138 140 145 143 124 103 97 89 86 83 74 67 61 55 51 46 43 41 39 38 35 32 32 29 31 33 35 35 36
45 50 53 57 61 68 72 76 79 85 89 97 102 105 112 120 124 132 139 143 149 138 117 101 97 86 83 79 72 64 56 51 47 43 40 39 36 36 32 30 31 29 29 31 31 33 34
49 53 57 59 66 70 76 80 85 87 91 98 102 109 116 122 129 134 138 143 143 128 111 98 90 84 78 74 69 64 57 51 47 42 39 37 35 34 33 30 29 29 27 29 29 31 32
50 54 58 62 68 74 78 85 87 91 94 104 107 113 121 125 130 137 141 145 140 120 99 94 87 81 78 75 72 68 60 54 50 46 43 37 31 30 32 32 31 29 27 26 28 29 31
52 55 60 65 72 77 83 88 88 95 100 104 108 117 123 128 134 139 143 147 134 114 97 91 82 78 74 72 70 68 65 60 54 49 45 42 37 31 27 26 28 30 29 28 28 28 29
55 58 65 70 75 82 88 89 90 95 102 105 113 120 124 133 136 141 145 145 128 109 93 88 79 75 72 69 67 66 63 59 54 50 46 40 35 33 30 28 26 25 26 30 30 29 28
Wind_Direction
294 298 310 324 335 334 339 347 353 354 350 345 343 345 345 343 341 339 337 342 339 338 332 328 321 315 311 313 313 308 305 302 301 293 290 284 279 274 272 272 269 267 262 262 263 263 264
298 298 306 307 316 327 327 337 345 344 342 342 341 340 341 338 336 336 334 335 334 331 329 319 318 314 315 312 312 313 310 301 294 291 291 290 288 280 273 272 273 271 268 267 266 261 261
298 300 301 304 307 316 321 329 333 336 339 340 335 333 334 333 332 331 330 330 329 327 323 313 306 305 312 312 311 311 311 305 301 297 290 285 284 280 278 276 274 272 269 268 268 264 260
291 305 309 301 302 312 321 319 323 327 329 332 331 328 328 329 326 327 327 324 324 322 316 312 312 309 310 309 309 306 303 300 298 296 294 292 285 279 278 277 274 269 271 270 268 268 266
300 297 306 305 302 306 311 316 316 319 322 325 327 325 325 323 324 323 320 321 321 322 319 318 316 314 315 312 309 304 303 299 295 294 289 289 288 282 280 280 275 273 269 266 266 264 264
296 305 306 305 304 307 312 307 307 313 318 316 323 322 320 320 317 318 317 316 318 320 322 318 311 307 309 308 311 306 302 299 298 297 292 288 282 278 281 279 276 272 266 265 264 262 262
289 295 301 299 305 310 302 305 303 307 312 313 315 317 318 317 317 317 316 315 315 318 320 322 311 308 308 307 307 307 302 297 294 295 293 288 285 284 280 276 272 270 268 264 264 264 259
289 288 293 287 291 292 301 302 307 306 308 311 313 315 317 317 314 315 314 312 315 315 314 315 316 312 311 306 304 305 299 293 290 289 289 290 288 285 281 277 277 272 267 262 263 262 260
284 281 286 284 299 293 293 300 308 304 305 311 310 313 316 316 315 316 314 313 314 314 315 314 314 311 312 311 305 303 300 296 293 290 288 288 287 282 279 280 276 271 267 262 259 258 258
282 281 287 286 293 290 299 302 302 303 306 309 310 313 315 316 316 317 318 316 313 313 312 312 310 307 312 312 307 301 297 294 291 291 288 288 288 287 284 280 274 267 265 263 259 258 255
279 286 291 287 293 300 298 298 301 303 305 307 310 312 313 314 317 315 314 314 315 316 312 312 310 309 310 309 304 301 295 291 291 290 287 286 284 282 281 278 274 269 267 263 261 258 255
281 277 283 291 294 295 296 300 304 303 305 307 310 312 312 314 314 315 314 314 315 314 310 312 312 308 305 306 307 304 300 294 293 290 287 286 284 281 279 275 273 271 268 266 263 260 258
276 282 287 291 294 297 303 306 304 303 304 306 311 311 311 312 315 314 316 318 315 314 316 315 312 310 305 305 304 304 301 299 296 294 292 290 288 285 279 276 273 270 267 264 262 260 261
285 290 295 297 299 302 305 303 302 304 307 310 310 312 311 313 316 316 319 318 317 319 317 314 313 310 308 307 307 304 303 301 298 297 295 292 288 285 282 278 274 270 268 265 263 260 259
292 294 301 300 304 306 304 305 306 308 309 308 311 311 313 316 316 320 320 319 321 321 318 317 314 311 310 310 309 307 304 303 301 299 295 293 290 285 282 280 278 272 268 265 262 259 256
295 299 302 304 306 303 305 306 308 308 308 310 311 315 317 318 317 322 322 324 323 321 320 319 317 316 314 314 312 310 307 307 304 300 297 293 289 284 282 281 278 274 270 265 261 258 256
297 299 303 304 304 305 305 305 307 308 312 314 317 316 317 324 324 321 325 327 324 324 323 322 321 319 318 317 315 313 311 310 306 302 299 294 288 282 281 282 278 274 268 264 261 256 255
294 300 302 300 302 304 305 307 308 310 315 317 314 315 320 324 324 325 328 327 325 325 325 325 325 322 321 319 318 316 315 311 308 305 300 296 290 284 280 278 277 275 268 261 259 259 254
296 303 304 301 302 304 306 308 309 314 314 315 317 319 321 322 327 330 330 328 327 326 327 328 326 324 323 321 321 319 317 313 312 308 306 301 293 287 282 278 275 269 268 264 257 255 256
292 302 301 304 307 307 308 310 312 312 314 317 319 322 322 326 327 328 328 328 328 330 331 330 327 325 325 324 324 323 320 318 314 314 310 302 296 290 283 282 276 271 267 264 262 258 256
299 301 305 306 308 307 308 310 313 314 318 319 322 325 328 331 330 330 331 331 332 333 332 331 327 326 327 327 328 327 324 321 318 316 311 303 297 292 288 285 280 275 272 265 262 257 251
302 303 303 307 306 306 308 311 314 319 322 327 325 324 328 332 331 332 331 334 335 334 335 331 329 329 329 331 330 328 325 323 319 318 315 310 304 301 297 292 282 280 276 269 261 253 250
301 303 305 304 305 306 309 312 315 320 321 325 327 329 331 332 333 335 333 335 335 336 334 333 331 331 332 334 332 330 328 325 322 320 317 315 311 309 303 295 287 279 273 270 265 258 250
300 303 303 304 306 308 312 313 318 320 323 325 325 331 331 333 335 335 336 335 337 336 335 332 332 334 334 334 334 331 328 328 324 322 320 318 316 313 307 297 290 284 277 271 269 261 252
299 300 303 307 310 311 313 315 320 320 326 322 327 333 333 336 335 336 338 339 337 336 337 337 336 336 335 335 335 336 333 332 329 326 325 322 320 316 310 299 292 288 282 276 270 266 258
300 302 304 308 310 315 315 316 317 321 328 324 329 332 334 336 337 338 338 339 339 339 337 336 336 337 335 335 337 340 340 338 337 333 331 327 322 319 314 305 292 287 283 279 273 266 260
302 304 307 310 313 314 315 315 320 326 324 326 331 334 334 336 337 338 340 339 340 339 337 338 337 335 337 337 340 341 343 342 342 340 334 331 326 320 318 313 303 293 288 280 276 270 264
302 306 308 310 313 313 314 315 325 323 323 327 335 334 336 338 340 338 340 340 340 340 339 338 336 337 338 340 342 342 343 343 342 341 338 332 329 325 321 314 307 300 292 285 280 275 268
307 308 308 310 311 310 312 319 325 324 325 331 334 335 337 340 338 340 340 339 341 340 337 339 337 338 339 341 343 343 343 341 341 338 337 334 329 324 321 319 313 306 296 288 284 279 271
Height
10746 10743 10740 10737 10735 10732 10728 10725 10721 10717 10714 10711 10707 10704 10701 10698 10694 10689 10685 10682 10678 10674 10671 10667 10663 10660 10657 10654 10651 10649 10645 10641 10637 10633 10630 10628 10625 10624 10625 10625 10619 10627 10621 10620 10619 10618 10615
10742 10739 10737 10734 10731 10728 10725 10720 10717 10713 10710 10706 10702 10697 10694 10691 10688 10685 10681 10677 10673 10669 10666 10661 10658 10654 10650 10646 10640 10636 10635 10632 10627 10622 10618 10613 10610 10607 10608 10607 10604 10604 10603 10601 10601 10601 10598
10737 10735 10732 10730 10727 10723 10720 10717 10713 10709 10706 10701 10697 10692 10688 10685 10682 10678 10672 10669 10666 10662 10658 10653 10648 10644 10640 10635 10631 10625 10620 10616 10613 10609 10604 10599 10595 10592 10591 10587 10585 10583 10584 10582 10585 10578 10575
10733 10731 10728 10725 10722 10719 10716 10712 10709 10705 10701 10697 10692 10688 10683 10678 10674 10671 10666 10660 10655 10651 10647 10644 10640 10634 10631 10626 10621 10616 10609 10603 10597 10592 10587 10583 10580 10576 10572 10569 10568 10565 10566 10564 10561 10555 10557
10727 10726 10723 10720 10717 10714 10711 10707 10703 10700 10696 10691 10686 10681 10677 10672 10667 10663 10658 10652 10646 10641 10637 10632 10627 10620 10617 10611 10606 10601 10595 10587 10583 10576 10570 10564 10559 10555 10553 10548 10546 10545 10545 10542 10540 10538 10536
10722 10721 10717 10714 10711 10709 10705 10701 10697 10694 10690 10685 10680 10674 10670 10665 10659 10653 10648 10642 10636 10630 10626 10621 10616 10606 10602 10595 10590 10583 10576 10569 10562 10556 10549 10543 10537 10535 10531 10521 10523 10516 10516 10519 10519 10518 10516
10715 10713 10711 10708 10706 10704 10698 10694 10690 10687 10683 10678 10673 10668 10661 10656 10650 10642 10635 10631 10625 10618 10612 10607 10599 10593 10585 10578 10571 10565 10558 10548 10540 10533 10524 10518 10511 10508 10500 10496 10493 10488 10486 10490 10489 10486 10488
10708 10706 10705 10701 10699 10694 10692 10688 10683 10678 10676 10670 10665 10660 10655 10648 10643 10636 10629 10620 10613 10605 10598 10596 10589 10580 10571 10563 10552 10545 10539 10527 10516 10506 10496 10489 10485 10474 10468 10460 10458 10455 10454 10464 10454 10455 10450
10701 10699 10697 10693 10691 10687 10684 10681 10676 10670 10666 10661 10657 10651 10645 10638 10630 10625 10616 10609 10601 10592 10583 10576 10570 10560 10550 10540 10529 10523 10510 10497 10485 10478 10466 10456 10447 10439 10431 10422 10414 10416 10412 10423 10419 10415 10415
10694 10692 10689 10686 10683 10681 10677 10672 10668 10663 10659 10652 10645 10639 10632 10626 10619 10609 10601 10593 10582 10574 10564 10557 10550 10539 10527 10510 10503 10490 10479 10470 10454 10441 10430 10416 10404 10392 10384 10377 10368 10372 10365 10371 10379 10377 10384
10686 10684 10682 10679 10676 10673 10670 10664 10659 10654 10648 10643 10638 10631 10622 10613 10607 10598 10589 10578 10566 10556 10539 10535 10520 10508 10496 10485 10467 10450 10430 10422 10407 10394 10382 10373 10360 10348 10334 10321 10313 10317 10317 10320 10328 10330 10334
10678 10675 10674 10672 10669 10666 10662 10656 10651 10645 10639 10633 10626 10619 10611 10602 10593 10583 10572 10562 10549 10537 10521 10507 10494 10478 10466 10447 10421 10406 10387 10365 10353 10342 10325 10316 10301 10290 10281 10271 10262 10262 10262 10266 10271 10276 10278
10670 10669 10667 10664 10661 10658 10653 10647 10641 10635 10629 10622 10614 10607 10599 10591 10580 10567 10556 10544 10530 10516 10497 10481 10467 10448 10428 10411 10388 10357 10332 10313 10295 10282 10266 10254 10238 10230 10218 10216 10210 10213 10215 10218 10216 10224 10233
10664 10661 10659 10656 10652 10648 10643 10638 10632 10625 10618 10609 10601 10594 10586 10577 10565 10552 10538 10523 10511 10494 10475 10453 10431 10409 10384 10360 10343 10311 10278 10257 10237 10225 10218 10212 10198 10175 10162 10164 10177 10170 10175 10174 10175 10188 10193
10656 10654 10651 10648 10644 10639 10634 10629 10622 10616 10608 10598 10589 10581 10571 10560 10547 10534 10518 10501 10484 10465 10448 10428 10405 10378 10353 10319 10287 10266 10232 10216 10199 10186 10176 10169 10160 10143 10125 10124 10137 10142 10139 10139 10145 10147 10152
10649 10647 10643 10640 10634 10629 10625 10619 10612 10605 10597 10587 10578 10567 10558 10544 10530 10515 10497 10477 10456 10438 10416 10387 10356 10332 10302 10275 10246 10217 10193 10179 10165 10148 10141 10134 10135 10107 10095 10097 10104 10110 10111 10109 10111 10115 10117
10642 10638 10635 10631 10626 10621 10616 10609 10601 10593 10584 10575 10564 10553 10542 10528 10513 10495 10476 10453 10430 10405 10385 10354 10319 10290 10257 10227 10201 10179 10157 10144 10134 10121 10109 10104 10102 10083 10076 10073 10074 10081 10084 10083 10083 10089 10088
10634 10631 10626 10621 10617 10612 10605 10599 10590 10582 10572 10561 10550 10537 10525 10510 10492 10474 10453 10431 10409 10378 10349 10314 10280 10248 10215 10189 10170 10147 10131 10114 10106 10097 10082 10075 10072 10068 10056 10056 10053 10052 10057 10061 10060 10059 10067
10626 10622 10617 10612 10608 10602 10594 10587 10580 10571 10562 10552 10538 10523 10510 10495 10473 10451 10426 10400 10377 10349 10317 10285 10246 10215 10187 10161 10147 10124 10105 10089 10079 10071 10064 10052 10048 10045 10036 10038 10034 10031 10032 10035 10039 10040 10042
10617 10613 10608 10604 10598 10592 10583 10575 10569 10559 10549 10537 10521 10504 10490 10473 10452 10429 10407 10380 10353 10316 10280 10249 10211 10187 10167 10137 10116 10102 10084 10071 10058 10052 10045 10035 10029 10026 10019 10016 10016 10012 10012 10013 10018 10023 10025
10608 10604 10599 10594 10589 10582 10573 10564 10555 10545 10533 10520 10504 10488 10471 10449 10425 10403 10378 10351 10318 10296 10258 10223 10187 10161 10139 10124 10100 10082 10064 10051 10041 10036 10030 10019 10012 10009 10007 10004 9996 9992 9992 9998 9999 10003 10006
10599 10595 10590 10584 10577 10571 10563 10552 10539 10530 10517 10502 10486 10469 10453 10429 10404 10379 10353 10328 10296 10258 10235 10198 10166 10139 10120 10104 10087 10071 10053 10040 10028 10017 10011 10004 9997 9993 9990 9988 9980 9979 9976 9977 9981 9986 9989
10590 10585 10580 10574 10567 10559 10551 10542 10530 10517 10501 10485 10471 10455 10435 10411 10387 10359 10332 10302 10273 10240 10203 10175 10149 10125 10103 10086 10068 10051 10040 10027 10016 10006 9997 9991 9984 9979 9975 9971 9968 9966 9964 9963 9965 9971 9974
10580 10576 10570 10563 10555 10547 10538 10526 10517 10504 10490 10473 10458 10438 10415 10393 10367 10338 10308 10281 10247 10217 10191 10165 10137 10112 10091 10076 10063 10045 10029 10016 10004 9996 9987 9980 9974 9967 9962 9958 9955 9955 9953 9951 9952 9955 9958
10571 10565 10559 10552 10545 10535 10524 10513 10503 10489 10475 10459 10440 10421 10399 10374 10347 10321 10289 10257 10220 10188 10160 10138 10115 10101 10083 10066 10049 10033 10019 10006 9996 9986 9978 9969 9964 9957 9952 9948 9944 9943 9942 9940 9940 9941 9944
10561 10555 10548 10541 10532 10521 10510 10499 10486 10475 10459 10443 10424 10403 10381 10359 10331 10305 10279 10251 10216 10174 10141 10126 10109 10089 10078 10061 10043 10024 10009 9997 9985 9977 9970 9961 9953 9948 9942 9938 9935 9932 9931 9929 9929 9928 9930
10550 10544 10537 10528 10519 10508 10497 10484 10472 10457 10442 10427 10407 10385 10364 10338 10313 10286 10257 10230 10198 10168 10146 10118 10096 10078 10062 10046 10029 10015 10003 9990 9978 9967 9957 9953 9948 9941 9933 9928 9924 9922 9920 9920 9918 9918 9918
10540 10533 10525 10516 10507 10494 10482 10470 10456 10443 10425 10409 10389 10369 10345 10319 10293 10267 10239 10209 10181 10154 10130 10111 10091 10072 10056 10038 10022 10006 9992 9979 9970 9961 9952 9943 9936 9932 9929 9924 9919 9913 9911 9910 9908 9907 9906
10528 10521 10513 10504 10493 10481 10468 10456 10441 10427 10411 10391 10371 10351 10328 10302 10275 10249 10221 10195 10166 10142 10124 10103 10083 10066 10051 10035 10020 10003 9988 9976 9964 9953 9945 9938 9931 9924 9919 9914 9911 9907 9903 9899 9897 9897 9897